Content
SEND FEEDBACK

Daily
Averages
Monthly
Summary
Saint Vincent and the Grenadines

KINGSTOWN, SAINT VINCENT AND THE GRENADINES


Home > Caribbean > Saint Vincent and the Grenadines
Elevation: 1460 feet     Latitude: 13 15N     Longitude: 061 12W

WEATHER
 
SELECT A DAY
Number of Records: 66,048;   Date Range: 7/1/96 - 8/28/14
 
SHARE

PRINT THIS DATA

[ ← Previous Day ]
WEATHER ALMANAC - JANUARY 23, 2013
[ Next Day → ]
[ °C ]   °F
Weather ElementAverageHighLow
Temperature81.6 °F86 °F (12:00 pm)77 °F (8:00 pm)
Dewpoint71.7 °F73.4 °F (4:00 pm)69.8 °F (2:00 pm)
Humidity71 %83 % (7:00 pm)53 % (2:00 pm)
Barometer30.03 in30.09 in (10:00 am)29.98 in (3:00 pm)
Wind Speed13.9 mph18.4 mph (5:00 pm)
Weather ElementAverage
Visibility7.3 mi
Wind DirectionESE (101.1 °)

Weather ElementTotal
Precipitation---
Cooling Degree Days16.5 (Base 65)
Growing Degree Days31.5 (Base 50)
Averaged from 19 records on January 23, 2013
WEATHER CONDITIONS BREAKOUT
WIND DIRECTION BREAKOUT
WEATHER BY HOUR - JANUARY 23, 2013
[ °C ]   °F
Local TimeTemperatureDewpointHumidityBarometerVisibilityWind DirectionWind SpeedGust SpeedPrecipitationEventsConditions
7:00 AM78.8 °F71.6 °F78 %30.04 in6.2 miEast (100°)12.7 mphScattered Clouds
8:00 AM81.0 °F70.0 °F61 %30.06 in14.0 miEast (100°)13.8 mphPartly Cloudy
8:00 AM78.8 °F71.6 °F78 %30.04 in6.2 miEast (100°)13.8 mphScattered Clouds
9:00 AM82.4 °F71.6 °F70 %30.06 in6.2 miEast (100°)13.8 mphScattered Clouds
10:00 AM84.2 °F71.6 °F66 %30.09 in6.2 miESE (110°)13.8 mphScattered Clouds
11:00 AM84.2 °F71.6 °F66 %30.06 in6.2 miESE (120°)16.1 mphScattered Clouds
12:00 PM86.0 °F71.6 °F62 %30.06 in6.2 miESE (110°)13.8 mphPartly Cloudy
1:00 PM86.0 °F71.6 °F62 %30.04 in6.2 miEast (100°)13.8 mphPartly Cloudy
2:00 PM84.2 °F69.8 °F62 %30.01 in6.2 miEast (90°)13.8 mphPartly Cloudy
2:00 PM85.0 °F71.0 °F53 %30.01 in14.0 miEast (90°)13.8 mphScattered Clouds
3:00 PM84.2 °F71.6 °F66 %29.98 in6.2 miEast (90°)11.5 mphScattered Clouds
4:00 PM84.2 °F73.4 °F70 %29.98 in6.2 miEast (100°)13.8 mphScattered Clouds
5:00 PM82.4 °F71.6 °F70 %30.01 in6.2 miEast (100°)18.4 mphMostly Cloudy
6:00 PM80.6 °F73.4 °F79 %30.01 in6.2 miEast (100°)10.4 mphScattered Clouds
7:00 PM78.8 °F73.4 °F83 %30.01 in6.2 miEast (100°)15.0 mphRainLight Rain Showers
8:00 PM77.0 °F72.0 °F79 %30.04 in12.0 miEast (100°)16.1 mphRainLight Rain Showers
8:00 PM77.0 °F71.6 °F83 %30.04 in6.2 miEast (100°)16.1 mphMostly Cloudy
9:00 PM77.0 °F71.6 °F83 %30.04 in6.2 miEast (100°)12.7 mphScattered Clouds
10:00 PM78.8 °F71.6 °F78 %30.04 in6.2 miESE (110°)10.4 mphMostly Cloudy
Hourly data recorded from TVSV, located miles away from Kingstown, Saint Vincent and the Grenadines







STORIES FROM OUR PARTNERS